Content
SEND FEEDBACK

Daily
Averages
Monthly
Summary
Canada

MONTREAL, QUEBEC


Home > North America > Canada > Quebec
Elevation: 35 meters     Latitude: 45 28N     Longitude: 073 45W

WEATHER
 
SELECT A DAY
Number of Records: 198,066;   Date Range: 1/1/95 - 7/23/14
 
SHARE

PRINT THIS DATA

[ ← Previous Day ]
WEATHER ALMANAC - 20 JANUARY, 2013
[ Next Day → ]
[ °F ]   °C
Weather ElementAverageHighLow
Temperature-1.5 °C6 °C (7:14 am)-15 °C (11:00 pm)
Dewpoint-12.4 °C0 °C (3:00 am)-20 °C (10:00 pm)
Humidity72.6 %93 % (11:00 am)47 % (7:00 pm)
Wind Speed41.4 km/h74 km/h (12:17 pm)
Wind Gust81.4 km/h (12:24 pm)
Weather ElementAverage
Visibility15.1 km
Wind Direction (463.5 °)

Weather ElementTotal
Precipitation---
Heating Degree Days22.8 (Base 18.3)
Averaged from 52 records on 20 January, 2013
WEATHER CONDITIONS BREAKOUT
WIND DIRECTION BREAKOUT
WEATHER BY HOUR - 20 JANUARY, 2013
[ °F ]   °C
Local TimeTemperatureDewpointHumidityBarometerVisibilityWind DirectionWind SpeedGust SpeedPrecipitationEventsConditions
12:27 AM1 °C-17.8 °C12.9 kmESE (110°)16.7 km/hRain-SnowLight Rain
1:00 AM1.1 °C-0.6 °C84 %1001.7 hPa16.1 kmSE (130°)13 km/hSnowLight Snow
1:00 AM1 °C-1 °C87 %1001.7 hPa16.1 kmSE (130°)13 km/hRain-SnowLight Rain
1:24 AM1 °C-17.8 °C16.1 kmSE (140°)14.8 km/hRainLight Rain
2:00 AM1 °C-1 °C87 %1001 hPa24.1 kmSSE (150°)14.8 km/hRainLight Rain
3:00 AM2 °C0 °C87 %999.3 hPa24.1 kmSSE (150°)16.7 km/hOvercast
4:00 AM2 °C-1 °C81 %996.3 hPa24.1 kmSE (140°)20.4 km/hOvercast
5:00 AM3 °C-2 °C70 %994.2 hPa24.1 kmSSE (150°)29.6 km/h40.7 km/hOvercast
6:00 AM3 °C-2 °C70 %991.9 hPa24.1 kmSSE (160°)31.5 km/hOvercast
7:00 AM3.3 °C-2.2 °C57 %990.5 hPa24.1 kmSSE (160°)29.6 km/hPartly Cloudy
7:00 AM3 °C-2 °C70 %990.5 hPa24.1 kmSSE (160°)29.6 km/h40.7 km/hMostly Cloudy
7:14 AM6 °C-17.8 °C24.1 kmSW (220°)29.6 km/h50.1 km/hRainLight Rain Showers
7:51 AM5 °C-17.8 °C6.4 kmSW (220°)44.4 km/h66.6 km/hRain-ThunderstormHeavy Thunderstorms and Rain
8:00 AM3 °C0 °C81 %992.9 hPa24.1 kmSW (230°)57.5 km/h76 km/hRain-ThunderstormLight Thunderstorms and Rain
8:14 AM2 °C-17.8 °C24.1 kmSW (220°)42.6 km/h72.3 km/hRain-SnowLight Rain Showers
8:40 AM2 °C-17.8 °C24.1 kmSW (220°)35.2 km/h44.4 km/hMostly Cloudy
9:00 AM3 °C-1 °C75 %993.2 hPa24.1 kmSW (220°)48.1 km/h62.9 km/hOvercast
9:19 AM3 °C-17.8 °C24.1 kmSW (220°)50.1 km/h61.2 km/hSnowLight Snow Showers
9:42 AM2 °C-17.8 °C48.3 kmSW (230°)46.3 km/h70.3 km/hMostly Cloudy
10:00 AM3 °C-2 °C70 %994.2 hPa24.1 kmSW (230°)46.3 km/h64.9 km/hMostly Cloudy
10:35 AM3 °C-17.8 °C0 km27.6 (2013°)66.6 km/hSmall Hail Showers270
10:40 AM0 °C-17.8 °C0 km27.6 (2013°)61.2 km/h0 mmLight Snow Showers250
10:43 AM0 °C-17.8 °C1.6 kmWSW (250°)40.7 km/h59.2 km/hSnowLight Snow Showers
10:50 AM0 °C-17.8 °C0 km23.0 (2013°)48.1 km/h0 mmLight Small Hail Showers250
11:00 AM0 °C-1 °C93 %995.3 hPa1.3 kmWSW (250°)35.2 km/h53.8 km/hSnowLight Snow Showers
11:15 AM0 °C-17.8 °C1.9 kmWSW (250°)51.8 km/h64.9 km/hSnowLight Snow Showers
11:22 AM0 °C-17.8 °C24.1 kmWSW (250°)44.4 km/h64.9 km/hSnowLight Snow Showers
12:00 PM0 °C-2 °C87 %996.3 hPa19.3 kmSW (230°)50.1 km/h61.2 km/hSnowLight Snow Showers
12:06 PM0 °C-17.8 °C2.4 kmSW (230°)46.3 km/h61.2 km/hSnowLight Snow Showers
12:12 PM0 °C-17.8 °C0 km35.7 (2013°)68.6 km/h0 mmHeavy Snow Showers240
12:17 PM-1 °C-17.8 °C0 km36.8 (2013°)74 km/h0 mmHeavy Snow Showers240
12:24 PM-1 °C-17.8 °C1.9 kmWSW (250°)48.1 km/h81.4 km/hSnowLight Snow Showers
12:38 PM0 °C-17.8 °C9.7 kmWSW (250°)51.8 km/hSnowLight Snow Showers
12:54 PM-1 °C-17.8 °C0 km29.9 (2013°)66.6 km/h0 mmLight Snow Showers250
1:00 PM-1.7 °C-2.2 °C92 %997.6 hPa0 kmWSW (250°)46.3 km/hSnowLight Snow Showers
1:00 PM-1 °C-2 °C93 %997.6 hPa0.8 kmWSW (250°)42.6 km/h72.3 km/hSnowLight Snow Showers
1:08 PM-1 °C-17.8 °C2.9 kmWSW (250°)48.1 km/h59.2 km/hSnowLight Snow Showers
1:13 PM-2 °C-17.8 °C0 km33.4 (2013°)64.9 km/h0 mmHeavy Snow260
1:30 PM-3 °C-17.8 °C1.6 kmWest (270°)51.8 km/h77.7 km/hSnowLight Snow Showers
1:43 PM-3 °C-17.8 °C12.9 kmWest (260°)38.9 km/h62.9 km/hSnowLight Snow Showers
2:00 PM-3 °C-6 °C80 %1000.7 hPa3.2 kmWest (260°)50.1 km/h64.9 km/hSnowLight Snow Showers
2:32 PM-5 °C-17.8 °C6.4 kmWest (270°)51.8 km/h74 km/hSnowBlowing Snow
3:00 PM-6 °C-11 °C68 %1003 hPa24.1 kmWest (260°)42.6 km/h61.2 km/hSnowLow Drifting Snow
4:00 PM-8 °C-14 °C63 %1006.8 hPa24.1 kmWest (270°)40.7 km/h68.6 km/hSnowLow Drifting Snow
5:00 PM-9 °C-16 °C58 %1009.1 hPa24.1 kmWest (260°)35.2 km/h48.1 km/hPartly Cloudy
6:00 PM-10 °C-17 °C57 %1010.8 hPa24.1 kmWest (260°)35.2 km/h48.1 km/hClear
7:00 PM-11 °C-18 °C57 %1011.9 hPa24.1 kmWest (260°)35.2 km/h51.8 km/hClear
7:00 PM-11.7 °C-17.8 °C47 %1011.9 hPa24.1 kmWest (260°)38.9 km/hPartly Cloudy
8:00 PM-12 °C-19 °C57 %1012.9 hPa24.1 kmWest (270°)37 km/h59.2 km/hSnowLow Drifting Snow
9:00 PM-13 °C-19 °C62 %1013.9 hPa24.1 kmWest (270°)35.2 km/h50.1 km/hSnowLow Drifting Snow
10:00 PM-14 °C-20 °C61 %1014.9 hPa24.1 kmWest (270°)35.2 km/h46.3 km/hPartly Cloudy
11:00 PM-15 °C-20 °C66 %1015.9 hPa24.1 kmWest (270°)33.3 km/hPartly Cloudy
Hourly data recorded from CYUL, located 0 kilometers away from Montreal, Quebec







STORIES FROM OUR PARTNERS